Date,TemperatureHighF,TemperatureAvgF,TemperatureLowF,DewpointHighF,DewpointAvgF,DewpointLowF,HumidityHigh,HumidityAvg,HumidityLow,PressureMaxIn,PressureMinIn,WindSpeedMaxMPH,WindSpeedAvgMPH,GustSpeedMaxMPH,PrecipitationSumIn
2013-1-1,15.6,12.4,7.9,6.6,3.9,2.3,79,68,63,30.29,30.25,12,2,13,0.00
2013-1-2,27.1,20.4,8.5,21.6,13.4,2.8,85,75,55,30.28,30.14,12,3,13,0.00
2013-1-3,25.9,22.6,14.4,21.7,18.4,10.7,88,84,79,30.30,30.13,20,5,20,0.00
2013-1-4,29.3,21.2,11.7,19.9,15.3,7.6,87,78,66,30.29,30.16,19,6,24,0.00
2013-1-5,36.3,28.3,17.0,33.3,25.1,14.9,97,88,73,30.32,29.95,14,3,18,0.08
2013-1-6,34.6,27.3,17.9,32.7,23.3,15.7,93,85,75,30.37,29.94,17,5,21,0.01
2013-1-7,38.4,27.9,16.2,27.6,21.5,13.4,92,78,59,30.36,30.12,26,5,30,0.01
2013-1-8,42.0,34.6,27.2,31.3,28.6,25.1,92,79,63,30.19,30.01,15,4,24,0.00
2013-1-9,41.2,36.2,27.6,32.5,27.4,22.4,84,71,55,30.53,29.98,26,6,28,0.00
2013-1-10,41.5,32.6,21.2,36.2,28.5,19.3,97,85,67,30.58,29.97,11,2,15,0.57
2013-1-11,51.3,44.0,37.0,48.2,43.0,36.2,99,96,87,29.97,29.67,18,3,23,0.12
2013-1-12,51.9,39.1,25.6,47.6,32.7,21.1,91,78,66,30.06,29.68,25,6,26,0.00
2013-1-13,26.0,19.1,13.0,23.3,13.9,6.3,91,80,73,30.29,29.95,19,5,22,0.00
2013-1-14,24.6,16.6,9.8,11.4,8.4,5.2,83,71,50,30.54,30.29,12,3,17,0.00
2013-1-15,31.0,21.1,12.2,17.4,13.6,9.6,91,74,50,30.52,30.18,10,2,12,0.00
2013-1-16,33.5,26.6,17.7,29.2,20.0,10.5,86,76,57,30.18,29.83,20,5,25,0.00
2013-1-17,29.5,20.7,13.3,20.8,9.2,2.3,83,61,46,30.49,30.13,15,4,19,0.00
2013-1-18,41.4,29.4,12.3,32.1,22.4,8.9,89,75,64,30.52,29.90,26,6,32,0.03
2013-1-19,43.8,37.9,18.0,35.1,29.2,6.2,81,72,32,29.95,29.70,37,7,43,0.00
2013-1-20,17.5,11.0,7.0,5.3,0.3,-1.2,70,62,50,30.37,29.95,24,6,32,0.00
2013-1-21,10.1,3.7,-2.8,5.1,-5.2,-11.1,83,66,57,30.39,30.21,22,6,26,0.00
2013-1-22,6.8,0.4,-6.0,-3.6,-8.4,-13.9,73,66,57,30.49,30.39,18,4,19,0.00
2013-1-23,17.1,11.1,2.9,12.9,4.3,-4.9,86,74,65,30.49,30.19,21,4,22,0.00
2013-1-24,18.9,10.9,1.2,9.2,1.5,-5.2,75,66,53,30.76,30.48,13,2,15,0.00
2013-1-25,23.9,19.5,16.3,18.9,13.4,5.3,88,77,55,30.48,30.03,12,4,19,0.00
2013-1-26,26.7,18.0,8.7,14.1,9.4,4.9,85,70,51,30.48,30.27,11,2,14,0.00
2013-1-27,32.9,27.8,23.3,32.1,23.2,13.3,97,83,63,30.46,29.96,16,4,20,0.00
2013-1-28,42.2,37.1,33.0,39.2,34.6,31.6,99,91,73,30.03,29.85,13,2,14,0.20
2013-1-29,59.0,45.9,36.5,57.4,44.9,35.5,100,97,91,29.89,29.50,19,3,20,1.23
2013-1-30,38.2,28.6,16.2,37.6,26.7,12.2,98,92,84,29.65,29.32,11,1,13,0.20
2013-1-31,16.7,11.2,2.9,12.7,5.6,-2.4,87,78,64,30.23,29.65,21,4,22,0.00
2013-2-1,7.6,2.8,-2.3,4.8,-3.2,-7.3,88,76,64,30.42,30.23,17,6,20,0.00
2013-2-2,13.0,8.8,4.3,7.8,3.6,-0.3,90,79,65,30.27,30.13,11,2,12,0.00
2013-2-3,18.9,13.0,4.9,12.3,7.3,0.8,88,78,64,30.15,30.05,20,4,23,0.00
2013-2-4,18.7,14.3,8.4,14.4,10.1,3.8,90,83,69,30.13,30.02,8,2,10,0.00
2013-2-5,27.2,19.0,6.1,23.3,15.0,2.5,93,84,73,30.20,29.88,13,3,18,0.00
2013-2-6,33.6,23.6,7.9,29.8,18.3,5.5,94,80,66,30.33,30.17,14,2,16,0.11
2013-2-7,33.7,31.8,22.8,32.4,30.1,21.3,98,93,86,30.20,29.97,10,1,14,0.12
2013-2-8,24.0,20.3,10.9,21.4,18.0,8.7,94,91,85,30.50,30.10,0,0,0,0.00
2013-2-9,28.2,20.3,6.7,25.5,18.1,4.6,96,91,86,30.51,30.18,11,1,14,0.00
2013-2-10,44.5,35.3,26.6,43.0,33.8,25.1,99,94,83,30.19,29.49,21,4,22,1.01
2013-2-11,41.5,31.8,26.6,36.1,26.7,21.3,87,81,75,30.05,29.48,24,9,33,0.01
2013-2-12,28.2,24.2,21.4,21.4,19.2,16.8,91,81,70,30.16,29.96,14,4,18,0.00
2013-2-13,40.4,30.4,20.3,30.6,25.8,18.8,95,83,65,29.96,29.77,11,2,14,0.00
2013-2-14,35.6,33.2,28.1,33.7,29.4,23.2,94,86,77,30.04,29.64,20,4,22,0.04
2013-2-15,28.0,20.8,13.7,26.0,12.2,6.0,93,70,52,30.27,30.04,13,4,15,0.00
2013-2-16,17.1,11.9,7.6,5.9,2.7,-0.5,81,67,50,30.29,30.22,14,3,20,0.00
2013-2-17,26.4,16.0,2.8,14.4,4.6,-1.5,84,62,40,30.32,30.08,13,2,17,0.00
2013-2-18,43.3,31.3,26.4,42.5,24.0,14.4,97,75,60,30.08,29.47,14,6,18,0.50
2013-2-21,26.2,25.8,25.5,22.4,21.9,21.6,87,85,84,30.24,30.18,15,6,18,0.00
2013-2-22,30.6,27.7,24.4,28.7,25.9,21.7,96,93,85,30.17,29.86,14,3,16,0.02
2013-2-23,29.2,25.4,21.1,25.3,20.9,17.2,92,83,71,30.00,29.91,14,4,17,0.01
2013-2-24,36.9,27.0,19.4,25.8,21.0,16.4,93,78,60,30.23,30.01,9,2,10,0.05
2013-2-25,41.0,29.8,17.3,27.6,23.4,15.9,96,79,54,30.26,30.13,7,1,9,0.00
2013-2-26,33.9,32.3,29.3,31.5,29.0,26.2,98,88,75,30.11,29.67,15,5,23,0.00
2013-2-27,32.9,31.4,29.2,32.4,30.8,28.5,98,97,96,29.81,29.64,13,4,16,0.09
2013-2-28,32.9,30.2,24.6,31.2,27.5,20.8,96,90,81,30.18,29.81,14,4,17,0.08
2013-3-1,24.8,23.9,22.2,21.2,19.8,17.0,88,84,79,30.31,30.17,13,5,17,0.00
2013-3-2,25.5,20.3,12.5,17.2,14.2,9.2,88,77,67,30.31,30.26,9,3,13,0.02
2013-3-3,29.2,18.0,8.4,13.5,7.8,0.5,91,68,32,30.26,30.18,10,1,11,0.01
2013-3-4,34.1,23.6,9.0,24.9,17.9,5.9,89,79,63,30.24,30.14,10,2,11,0.04
2013-3-5,31.5,29.1,26.3,27.5,25.8,23.6,96,87,75,30.14,29.96,17,4,17,0.01
2013-3-6,32.9,29.4,26.0,27.8,25.7,23.3,92,86,79,30.38,30.12,12,4,15,0.02
2013-3-7,36.4,28.6,20.6,26.1,21.6,16.6,92,76,55,30.52,30.38,8,2,9,0.14
2013-3-8,40.2,29.1,15.6,29.6,23.7,13.9,97,81,64,30.56,30.38,12,2,13,0.00
2013-3-9,39.1,35.3,30.5,34.5,30.3,25.1,91,82,75,30.38,29.89,15,4,17,0.07
2013-3-10,43.6,39.8,36.5,43.1,39.0,34.1,99,97,90,29.90,29.68,8,2,11,0.76
2013-3-11,40.1,34.7,30.7,39.8,33.9,27.7,99,97,90,29.79,29.58,15,3,16,0.04
2013-3-12,32.3,28.9,26.1,27.6,24.2,19.7,94,83,63,30.06,29.79,18,5,21,0.02
2013-3-13,30.9,25.3,19.6,22.0,13.0,8.4,88,61,40,30.38,30.05,18,6,21,0.00
2013-3-14,35.5,28.3,20.0,28.0,18.2,9.4,92,67,39,30.39,30.14,12,2,13,0.00
2013-3-15,37.5,31.9,29.3,33.4,29.2,26.2,94,90,81,30.14,29.87,13,3,13,0.04
2013-3-16,31.6,27.8,23.8,27.7,22.8,18.9,94,82,63,30.21,29.87,11,4,15,0.01
2013-3-17,30.8,25.4,19.1,23.6,17.1,10.6,81,71,59,30.33,30.11,10,3,13,0.01
2013-3-18,33.3,28.9,19.1,31.7,25.6,13.2,94,87,74,30.11,29.64,23,4,30,0.16
2013-3-19,30.1,20.5,13.5,13.7,10.8,8.2,81,67,44,30.11,29.77,25,8,29,0.00
2013-3-20,20.5,15.4,10.7,10.0,4.7,-0.3,67,62,56,30.14,30.10,22,6,24,0.00
2013-3-21,27.7,19.1,9.8,14.3,9.1,3.2,75,65,53,30.14,30.10,15,4,16,0.00
2013-3-22,34.7,24.8,15.6,17.9,13.5,8.9,81,63,43,30.17,30.10,9,2,12,0.00
2013-3-23,39.2,28.7,18.7,24.9,20.3,15.7,89,72,47,30.23,30.13,8,1,9,0.00
2013-3-24,33.8,31.3,29.9,29.2,26.3,22.8,91,81,74,30.14,29.82,15,4,19,0.00
2013-3-25,34.5,30.8,27.9,27.5,25.1,21.7,90,79,67,30.16,29.84,18,5,19,0.01
2013-3-26,39.4,34.5,29.9,29.3,26.4,24.3,81,72,65,30.31,30.16,12,3,15,0.00
2013-3-27,41.3,35.9,29.4,25.7,22.7,18.4,73,60,42,30.37,30.31,15,3,16,0.00
2013-3-28,45.2,35.7,27.9,25.3,21.5,18.8,74,58,37,30.41,30.36,11,2,13,0.00
2013-3-29,48.3,33.8,24.9,24.9,22.0,19.8,86,64,34,30.39,30.31,7,1,9,0.00
2013-3-30,55.5,43.6,30.4,42.4,30.7,20.7,89,61,40,30.31,29.86,17,3,24,0.01
2013-3-31,49.7,41.1,32.6,42.1,34.7,20.4,94,79,50,29.94,29.74,20,5,27,0.01
2013-4-1,35.2,30.4,26.1,20.7,15.0,11.2,65,53,39,30.25,29.94,21,5,23,0.00
2013-4-2,38.4,30.9,24.1,17.5,14.5,10.7,70,52,33,30.39,30.25,19,4,21,0.00
2013-4-3,42.9,32.3,20.2,19.6,15.9,8.6,85,53,26,30.54,30.37,14,2,14,0.00
2013-4-4,56.9,42.9,29.1,35.1,24.3,12.0,62,48,35,30.37,30.01,20,4,20,0.00
2013-4-5,43.6,37.3,30.8,29.4,25.7,19.3,88,64,47,30.31,30.08,12,3,16,0.00
2013-4-6,62.9,46.9,34.8,49.7,35.2,20.7,89,65,46,30.24,29.59,17,5,26,0.11
2013-4-7,52.6,43.0,36.0,49.9,35.6,31.1,92,75,54,30.04,29.59,20,5,26,0.00
2013-4-8,50.2,41.5,36.1,45.7,38.5,30.8,97,89,80,30.06,29.65,14,2,15,0.70
2013-4-9,40.0,37.7,36.1,39.0,37.0,34.9,98,97,94,30.09,29.95,17,4,19,1.12
2013-4-10,37.7,35.8,33.2,36.6,34.8,32.2,98,96,94,30.22,29.92,16,5,19,1.22
2013-4-11,37.3,36.1,34.6,36.5,35.3,33.2,98,97,94,30.02,29.65,22,6,22,0.48
2013-4-12,40.7,37.0,34.7,38.1,35.2,30.3,99,93,83,29.86,29.59,19,4,19,0.08
2013-4-13,38.2,35.2,30.8,30.4,28.3,25.3,86,76,61,30.06,29.85,18,5,21,0.00
2013-4-14,53.2,37.9,29.1,47.3,34.4,26.3,95,87,78,30.09,29.70,17,4,18,0.07
2013-4-15,63.2,52.0,40.7,52.1,46.2,35.1,98,82,45,30.00,29.69,26,5,35,0.57
2013-4-16,53.4,42.6,34.8,39.4,34.4,31.6,96,74,49,30.36,30.00,16,3,16,0.00
2013-4-17,44.0,40.4,37.5,42.7,36.5,31.9,97,86,71,30.39,29.93,17,4,17,0.85
2013-4-18,52.2,45.3,39.5,51.4,44.3,34.6,99,96,81,29.94,29.42,23,3,31,1.24
2013-4-19,39.7,35.9,31.2,34.7,28.9,20.1,92,76,61,29.95,29.43,26,8,31,0.03
2013-4-20,42.9,33.5,26.8,22.0,18.3,13.6,75,55,32,30.39,29.96,16,5,20,0.00
2013-4-21,45.9,40.7,29.1,31.1,24.9,19.3,85,55,39,30.60,30.36,16,6,24,0.00
2013-4-22,65.8,51.6,40.6,40.2,33.5,30.6,69,52,31,30.36,30.11,14,4,20,0.00
2013-4-27,64.2,58.4,54.9,42.9,40.1,38.6,57,51,45,30.11,30.05,10,1,12,0.00
2013-4-28,84.4,58.2,47.7,54.9,44.9,39.9,88,63,32,30.05,29.84,7,1,9,0.23
2013-4-29,70.9,60.6,49.8,56.1,51.8,48.1,95,74,48,29.91,29.78,15,3,21,0.02
2013-4-30,86.5,72.7,61.9,60.6,55.8,48.3,85,59,28,29.92,29.75,23,7,27,0.00
2013-5-1,83.8,70.5,50.1,58.5,52.8,40.3,80,56,28,30.22,29.92,17,4,21,0.00
2013-5-2,57.7,46.4,38.8,47.0,40.0,34.9,96,79,59,30.28,30.22,13,4,17,0.96
2013-5-3,48.7,42.4,37.5,45.6,40.9,36.3,97,94,86,30.24,30.07,10,3,15,0.58
2013-5-4,69.2,55.7,45.1,48.4,45.1,42.0,94,70,43,30.11,30.05,11,2,13,0.03
2013-5-5,70.2,57.4,43.8,46.8,42.1,37.6,90,59,37,30.11,30.05,8,2,10,0.00
2013-5-6,73.3,60.1,46.3,43.6,37.6,28.3,75,47,20,30.11,30.02,8,1,11,0.00
2013-5-7,75.8,62.2,46.3,47.5,41.2,34.1,75,49,29,30.10,30.03,9,1,12,0.00
2013-5-8,80.3,63.1,44.8,49.0,43.0,38.0,91,53,26,30.08,30.00,8,1,9,0.00
2013-5-9,70.1,56.7,42.3,58.7,48.2,41.2,96,75,47,30.00,29.92,9,1,13,0.23
2013-5-10,47.1,43.4,40.3,43.5,41.5,38.6,97,93,86,30.04,29.88,16,3,17,0.78
2013-5-11,52.7,45.7,38.2,49.4,36.4,25.2,99,73,39,30.07,29.83,22,5,28,0.00
2013-5-12,52.6,43.5,36.4,31.8,27.2,22.8,75,54,33,30.17,30.07,17,5,19,0.00
2013-5-13,60.0,45.7,30.8,37.1,30.8,22.2,97,60,26,30.24,30.02,11,2,15,0.00
2013-5-14,82.5,66.5,47.6,57.6,47.6,31.8,61,51,31,30.02,29.58,21,4,40,0.03
2013-5-15,77.5,71.1,55.9,60.1,47.6,39.0,70,45,26,29.85,29.58,14,3,20,0.00
2013-5-16,78.6,63.7,54.5,51.0,42.2,29.9,71,47,32,30.03,29.85,8,2,11,0.00
2013-5-17,61.2,54.2,47.0,50.5,43.4,34.1,95,68,44,30.17,30.02,8,2,12,0.76
2013-5-18,76.8,63.1,51.0,60.1,52.5,44.4,86,69,52,30.13,29.99,14,1,14,0.00
2013-5-19,83.1,70.4,56.3,65.5,60.8,54.0,94,73,54,29.99,29.71,14,2,21,0.01
2013-5-20,85.1,75.8,67.5,66.3,60.6,55.6,89,61,38,29.77,29.68,18,3,24,0.03
2013-5-21,79.7,69.8,62.2,63.8,60.2,55.9,94,73,48,29.71,29.64,16,3,23,0.09
2013-5-22,66.5,60.1,52.8,64.4,57.8,52.3,98,92,82,29.80,29.64,6,0,7,1.17
2013-5-23,54.7,48.1,39.1,52.3,43.8,34.9,98,86,67,30.37,29.80,14,2,19,0.04
2013-5-24,60.4,46.5,35.0,42.2,34.8,30.5,94,66,41,30.51,30.37,7,1,11,0.00
2013-5-25,60.3,51.0,41.1,41.6,34.6,26.2,81,55,29,30.46,30.36,9,1,9,0.00
2013-5-26,65.6,52.4,36.9,44.0,39.5,34.5,94,64,39,30.36,30.23,13,1,14,0.00
2013-5-27,54.6,51.3,49.3,50.9,47.2,39.6,97,87,61,30.23,29.96,11,2,14,0.03
2013-5-28,67.2,65.0,50.3,66.6,64.5,50.0,99,98,98,29.88,29.77,3,0,3,1.21
2013-5-29,81.5,67.1,59.4,67.1,63.2,58.8,100,89,54,29.94,29.80,10,1,15,0.00
2013-5-30,85.4,76.1,63.5,69.4,66.7,61.8,95,74,55,29.91,29.75,18,4,31,0.51
2013-5-31,76.5,68.5,62.4,67.6,63.4,60.3,98,85,61,29.87,29.73,17,3,20,0.18
2013-6-1,76.5,70.2,62.8,66.9,63.9,57.8,95,81,61,29.72,29.63,15,3,17,0.02
2013-6-2,62.8,54.5,45.9,57.7,47.3,42.6,91,77,57,30.07,29.69,14,3,20,0.00
2013-6-3,69.6,56.6,43.1,49.8,43.2,37.4,98,65,36,30.14,30.06,10,1,11,0.00
2013-6-4,71.0,59.4,51.8,48.3,43.7,38.9,73,57,41,30.21,30.12,9,1,14,0.00
2013-6-5,62.9,55.7,51.0,53.4,48.3,43.8,93,77,52,30.19,30.02,9,1,13,0.09
2013-6-6,58.3,54.5,51.5,53.7,50.1,46.4,94,85,72,30.03,29.96,5,0,8,0.01
2013-6-7,71.3,60.5,50.7,52.4,45.5,38.1,93,61,31,30.03,29.95,11,1,12,0.01
2013-6-8,71.4,59.2,47.2,53.1,47.9,43.6,93,69,42,30.07,29.96,9,1,11,0.00
2013-6-9,78.5,65.9,53.5,61.8,55.8,49.1,86,71,52,30.07,29.86,14,1,16,0.00
2013-6-10,77.1,67.1,59.6,66.0,61.7,57.6,95,84,66,29.89,29.80,5,0,7,0.00
2013-6-11,83.7,71.9,59.9,68.3,62.5,58.5,98,75,48,29.94,29.80,13,1,13,0.01
2013-6-12,77.1,68.1,59.9,65.8,63.3,59.0,98,85,66,29.94,29.65,9,1,17,1.16
2013-6-13,75.3,64.3,55.0,60.2,55.0,50.3,97,73,52,30.11,29.72,13,2,15,0.00
2013-6-14,76.9,62.9,50.6,55.9,50.2,44.9,95,66,43,30.18,30.05,7,1,12,0.00
2013-6-15,77.8,65.9,54.9,68.8,60.7,47.9,97,84,70,30.11,29.84,12,2,16,1.72
2013-6-16,83.1,73.3,65.1,66.7,59.9,51.1,98,68,35,29.92,29.85,13,2,14,0.02
2013-6-17,85.3,68.7,58.1,68.2,56.8,51.5,92,69,36,30.00,29.86,17,2,20,0.17
2013-6-18,69.4,60.5,51.9,56.7,49.5,39.3,90,69,47,30.13,29.99,11,2,13,0.00
2013-6-19,74.6,62.1,45.7,50.7,45.9,40.9,93,58,37,30.20,30.12,9,2,12,0.00
2013-6-20,84.7,68.9,52.8,63.0,51.9,38.9,75,55,40,30.18,30.09,11,1,16,0.00
2013-6-21,74.9,70.4,66.0,67.9,64.2,54.8,97,81,61,30.15,29.88,16,2,25,1.09
2013-6-22,78.5,71.0,65.9,71.2,67.5,65.1,98,89,76,30.14,29.95,14,2,16,0.66
2013-6-23,87.4,76.0,65.8,73.7,67.8,64.0,95,77,61,30.03,29.88,14,3,19,0.00
2013-6-24,80.0,73.3,68.6,71.3,67.5,64.0,95,83,60,30.03,29.85,11,1,17,0.02
2013-6-25,82.3,71.0,65.5,73.4,68.0,64.8,99,91,72,29.96,29.82,10,1,15,1.42
2013-6-26,79.6,71.4,66.7,70.0,67.6,65.2,97,88,70,29.84,29.72,12,1,12,0.12
2013-6-27,85.9,73.5,64.6,72.9,67.4,61.9,99,83,56,29.79,29.69,12,1,17,0.00
2013-6-28,77.0,69.6,63.1,64.1,62.3,59.4,97,79,57,29.73,29.60,18,3,21,0.45
2013-6-29,73.8,65.8,61.7,62.7,59.7,55.0,98,82,54,29.84,29.63,14,2,18,0.20
2013-6-30,78.1,67.5,57.8,59.7,52.0,41.9,84,60,33,30.06,29.84,12,2,17,0.00
2013-7-1,79.3,67.5,55.7,54.1,49.8,45.6,78,56,32,30.13,30.05,11,1,13,0.00
2013-7-2,72.6,62.8,55.0,54.5,50.4,43.3,92,65,41,30.15,30.10,10,1,12,0.00
2013-7-3,66.6,63.2,60.1,62.6,59.1,54.0,94,87,77,30.11,30.05,8,0,11,0.02
2013-7-4,82.7,71.0,60.2,65.1,60.9,53.4,99,74,39,30.13,30.04,13,1,13,0.00
2013-7-5,84.4,74.5,64.3,66.1,62.1,56.8,89,67,49,30.10,30.02,11,2,15,0.00
2013-7-6,85.3,74.7,63.6,68.3,63.7,56.7,92,71,41,30.07,29.97,9,1,11,0.00
2013-7-7,87.6,78.1,68.7,72.0,68.9,66.1,94,75,55,30.01,29.93,9,1,13,0.00
2013-7-8,85.9,76.9,70.6,75.5,71.0,68.4,96,82,68,30.00,29.91,15,2,18,0.26
2013-7-9,82.9,74.1,67.3,74.8,70.9,66.7,99,90,73,30.01,29.83,12,2,15,0.38
2013-7-10,77.5,73.8,62.3,74.5,63.3,55.5,95,72,49,30.03,29.84,16,3,21,0.00
2013-7-11,79.8,68.2,55.3,61.4,55.3,49.2,98,67,41,30.14,30.03,7,1,10,0.00
2013-7-12,83.6,68.3,52.5,59.1,54.1,46.1,97,65,36,30.19,30.10,9,1,11,0.00
2013-7-13,82.5,71.6,56.4,62.9,58.5,52.9,98,66,40,30.20,30.12,10,1,13,0.00
2013-7-14,87.4,75.8,62.3,70.1,65.7,60.7,96,73,52,30.25,30.18,10,1,11,0.00
2013-7-15,89.1,78.4,66.6,74.4,70.7,65.1,97,78,58,30.28,30.23,9,1,10,0.00
2013-7-16,92.0,82.5,73.2,75.9,73.7,71.1,95,76,56,30.29,30.22,8,1,11,0.00
2013-7-17,92.8,83.8,75.7,75.7,73.7,71.6,92,73,53,30.29,30.15,12,2,16,0.00
2013-7-18,92.4,83.8,74.2,74.9,72.6,68.9,94,71,50,30.17,29.90,13,2,20,0.00
2013-7-19,90.1,83.4,76.6,73.2,70.8,63.3,82,67,53,29.91,29.72,17,4,25,0.00
2013-7-20,84.6,72.1,63.5,65.4,61.8,57.6,89,71,46,29.99,29.80,7,1,9,0.03
2013-7-21,81.1,68.0,61.3,67.2,61.3,55.1,98,80,58,30.00,29.91,14,1,14,0.56
2013-7-22,85.9,74.5,62.7,70.6,66.7,62.0,99,79,52,29.92,29.70,14,1,16,0.00
2013-7-23,74.3,67.8,57.9,64.9,58.2,52.1,94,73,49,30.02,29.71,13,2,17,0.03
2013-7-24,73.9,62.4,51.4,55.5,52.3,49.2,96,72,47,30.11,30.02,7,1,10,0.00
2013-7-25,78.7,66.7,52.1,61.6,56.6,50.6,96,72,51,30.12,29.99,11,2,12,0.00
2013-7-26,70.1,66.1,59.9,66.9,62.4,58.2,97,88,72,30.01,29.87,13,2,14,0.48
2013-7-27,60.2,56.5,52.8,58.2,50.0,45.8,95,80,63,29.95,29.89,15,3,19,0.01
2013-7-28,66.3,58.5,52.1,54.0,50.9,48.3,91,77,61,30.03,29.87,13,4,18,0.00
2013-7-29,73.4,62.7,56.1,59.0,54.7,51.5,92,76,53,30.22,30.03,8,1,10,0.00
2013-7-30,76.2,64.4,53.5,64.9,59.6,52.4,98,86,60,30.23,30.12,9,1,10,0.18
2013-7-31,76.4,65.7,59.8,67.9,63.6,58.7,99,94,72,30.12,29.96,10,0,17,0.25
2013-8-1,76.6,67.4,58.8,61.9,57.5,52.4,99,74,45,30.01,29.94,14,2,15,0.02
2013-8-2,79.8,69.7,61.7,67.2,60.2,55.1,97,74,47,29.97,29.86,13,2,15,0.16
2013-8-3,77.9,66.8,53.6,57.3,54.0,51.1,95,66,43,30.14,29.97,12,1,14,0.00
2013-8-4,73.8,63.7,55.2,59.1,55.6,51.0,97,77,49,30.25,30.14,6,1,8,0.00
2013-8-5,73.3,64.2,55.8,63.4,58.6,53.3,94,83,67,30.16,29.90,10,1,13,0.02
2013-8-6,82.4,72.6,62.9,70.5,66.4,61.7,98,82,62,29.90,29.81,10,2,12,0.00
2013-8-7,81.8,74.4,64.5,71.5,66.8,61.3,95,79,53,29.99,29.76,11,2,14,0.00
2013-8-8,77.3,68.0,59.5,62.2,53.9,45.8,98,65,36,30.08,29.98,7,1,10,0.00
2013-8-9,78.7,68.3,55.9,65.2,58.1,50.3,89,71,58,30.08,29.99,9,1,11,0.00
2013-8-10,75.3,65.4,54.8,61.1,56.9,50.8,98,76,44,30.17,30.08,9,0,10,0.00
2013-8-11,73.2,64.1,53.8,65.6,60.2,52.8,98,88,72,30.17,30.05,8,1,11,0.04
2013-8-12,80.6,70.2,63.3,68.1,64.0,58.6,99,83,48,30.07,29.90,11,1,13,0.34
2013-8-13,69.5,60.3,52.0,59.4,49.5,46.4,94,69,47,30.21,30.00,13,2,13,0.00
2013-8-14,68.4,55.1,46.7,51.4,48.5,45.3,96,81,50,30.26,30.20,7,1,8,0.00
2013-8-16,80.2,67.6,56.2,59.5,54.7,50.7,93,67,39,30.22,30.14,8,2,8,0.00
2013-8-17,81.2,66.7,52.4,63.8,56.3,51.4,99,73,45,30.28,30.20,10,3,10,0.00
2013-8-18,80.7,67.5,53.2,61.7,56.6,52.2,98,71,46,30.26,30.12,11,4,11,0.00
2013-8-19,82.5,70.8,57.5,64.2,60.3,55.2,93,71,48,30.14,30.04,14,4,14,0.00
2013-8-20,85.7,74.9,64.4,67.4,64.6,62.1,94,72,48,30.11,30.02,15,6,15,0.00
2013-8-21,88.8,78.8,69.4,70.0,67.3,64.0,86,69,51,30.06,29.91,20,9,20,0.00
2013-8-22,76.8,69.3,58.4,71.0,65.9,56.4,98,89,69,30.15,30.00,20,2,25,1.95
2013-8-23,80.8,67.4,54.6,63.9,57.8,53.1,99,75,41,30.22,30.14,8,0,9,0.00
2013-8-24,83.9,69.3,53.5,66.5,59.9,52.6,99,75,49,30.29,30.19,10,2,13,0.01
2013-8-25,89.0,77.7,66.9,70.3,64.6,57.3,84,65,42,30.23,30.10,14,3,21,0.00
2013-8-26,89.0,79.4,72.4,75.2,69.9,65.0,82,73,63,30.14,29.96,13,3,16,0.00
2013-8-27,93.0,83.7,74.7,75.2,72.8,70.3,87,71,53,29.97,29.79,16,2,23,0.00
2013-8-28,84.0,76.1,68.3,74.6,69.6,65.9,93,81,61,30.06,29.82,9,1,11,0.00
2013-8-29,87.5,75.4,63.8,70.5,67.3,62.8,99,78,54,30.10,29.99,8,1,10,0.00
2013-8-30,92.0,74.5,67.2,76.6,68.7,62.6,96,83,57,30.00,29.77,19,2,28,0.31
2013-8-31,79.1,69.4,62.0,68.4,64.6,60.7,97,85,68,29.90,29.81,6,0,7,0.00
2013-9-1,83.0,69.5,61.2,71.8,65.6,60.3,99,89,65,29.85,29.72,9,1,12,0.14
2013-9-2,70.7,63.8,56.6,62.1,58.0,52.3,98,83,61,30.03,29.83,9,1,11,0.01
2013-9-3,74.2,61.3,48.6,56.7,52.8,47.5,98,76,50,30.12,30.03,8,1,10,0.00
2013-9-4,80.7,66.5,53.8,64.7,59.2,52.7,97,79,54,30.16,30.06,9,1,14,0.00
2013-9-5,71.8,64.6,52.5,62.9,53.0,46.4,90,68,44,30.31,30.16,7,1,9,0.00
2013-9-6,84.5,67.6,48.5,68.0,58.8,47.1,98,76,53,30.27,30.01,11,1,13,0.00
2013-9-7,80.8,72.2,67.6,71.3,67.1,62.9,97,84,61,30.02,29.90,10,1,14,0.81
2013-9-8,72.8,67.7,64.4,66.0,63.9,61.5,93,88,75,30.09,29.99,10,1,13,0.00
2013-9-9,87.5,77.2,67.1,77.5,71.2,63.7,94,83,68,30.01,29.80,11,2,12,0.00
2013-9-10,93.5,83.9,76.8,72.9,65.6,61.4,76,56,37,29.94,29.82,18,3,18,0.00
2013-9-11,80.9,74.6,67.8,68.1,66.3,65.0,92,76,62,30.09,29.93,11,2,15,0.00
2013-9-12,73.9,65.7,56.1,65.3,58.7,46.4,98,79,53,30.15,29.97,12,1,13,0.01
2013-9-13,65.6,54.5,46.2,48.1,44.5,40.2,92,71,44,30.25,30.15,12,1,14,0.00
2013-9-14,69.8,56.6,42.1,50.4,45.9,41.0,98,71,44,30.23,30.05,11,1,12,0.00
2013-9-15,59.4,55.9,53.1,56.8,52.0,44.8,98,88,60,30.27,30.03,9,1,15,0.55
2013-9-16,63.1,52.4,43.4,50.2,45.2,40.4,94,78,56,30.43,30.27,12,1,13,0.00
2013-9-17,68.1,55.2,40.4,56.0,49.5,39.6,99,82,62,30.40,30.16,11,2,13,0.00
2013-9-18,77.0,62.3,57.6,66.3,57.4,53.8,96,84,67,30.16,30.00,7,1,11,0.40
2013-9-19,81.2,70.9,66.9,73.0,68.0,65.0,98,91,76,29.94,29.75,16,6,19,0.67
2013-9-20,72.3,65.8,57.7,66.8,61.4,53.9,98,86,68,29.83,29.72,16,3,18,0.01
2013-9-21,57.7,54.0,45.0,54.8,48.3,43.0,95,82,65,30.00,29.83,13,2,16,0.00
2013-9-22,62.9,50.3,40.5,48.1,43.4,39.4,97,79,48,30.13,30.00,8,1,9,0.00
2013-9-23,64.2,51.9,40.3,51.9,46.4,39.5,99,83,59,30.18,30.10,9,1,10,0.00
2013-9-24,69.3,56.9,46.1,56.6,50.7,45.0,98,82,53,30.12,30.01,8,1,10,0.01
2013-9-25,69.2,56.1,46.5,58.7,50.3,45.7,99,83,56,30.04,30.00,6,0,10,0.00
2013-9-26,73.9,58.6,46.3,61.0,50.9,45.8,99,79,38,30.14,30.03,9,1,11,0.01
2013-9-27,79.1,62.1,47.1,56.7,51.6,46.3,99,72,43,30.21,30.10,12,2,16,0.00
2013-9-28,80.5,67.6,54.6,65.8,58.4,53.3,96,75,49,30.11,29.86,16,4,18,0.20
2013-9-29,69.8,57.4,48.1,53.7,48.3,40.1,98,76,35,30.09,29.97,9,1,9,0.01
2013-9-30,71.8,58.3,43.2,53.4,47.8,42.4,98,71,43,30.05,29.88,12,2,13,0.00
2013-10-1,80.5,67.5,55.3,63.6,59.2,49.8,94,76,53,29.98,29.85,21,3,21,0.00
2013-10-2,77.5,61.8,48.5,58.7,47.7,34.8,98,67,24,30.15,29.98,7,0,8,0.00
2013-10-3,75.5,66.4,58.0,68.3,62.7,53.4,99,88,71,30.03,29.86,10,1,14,0.10
2013-10-4,65.6,62.8,59.8,65.0,62.2,59.3,99,98,96,30.05,29.90,9,0,13,0.10
2013-10-5,71.8,64.3,60.5,70.7,64.0,60.2,100,99,90,30.00,29.77,12,1,17,1.16
2013-10-6,64.8,53.0,45.4,63.9,46.7,41.7,97,81,52,29.78,29.69,17,6,17,0.16
2013-10-7,64.9,52.1,44.6,48.3,45.5,43.0,98,80,46,30.14,29.75,15,2,15,0.02
2013-10-8,75.5,57.9,39.9,53.9,47.0,39.1,99,72,36,30.22,30.13,14,2,14,0.00
2013-10-9,72.2,59.8,48.8,51.4,48.3,43.0,94,68,37,30.26,30.18,11,2,13,0.00
2013-10-10,73.5,57.1,42.0,56.9,49.3,41.2,99,78,43,30.22,30.09,8,1,11,0.00
2013-10-11,74.4,60.7,48.5,58.9,53.0,47.7,99,78,53,30.11,29.99,17,2,20,0.00
2013-10-12,66.8,60.9,51.6,62.3,52.6,39.2,95,75,55,30.18,29.96,12,3,16,0.19
2013-10-13,59.8,48.9,39.1,44.3,40.4,37.2,93,74,46,30.46,30.19,12,1,16,0.00
2013-10-14,59.9,47.6,35.6,47.8,41.6,34.6,98,82,55,30.48,30.20,9,1,13,0.00
2013-10-15,59.9,53.9,47.0,58.8,50.8,43.3,98,89,79,30.20,29.77,12,2,18,0.29
2013-10-16,53.2,49.3,45.6,51.0,47.1,42.8,97,92,87,29.97,29.82,11,2,14,0.02
2013-10-17,50.9,46.2,41.2,46.8,43.8,39.6,97,92,76,29.96,29.85,11,1,13,0.11
2013-10-18,49.0,43.9,38.5,43.6,40.0,36.8,95,86,76,29.99,29.85,13,2,17,0.01
2013-10-19,52.1,43.6,38.4,39.8,37.2,32.9,94,79,51,29.96,29.79,13,2,23,0.00
2013-10-20,51.2,42.6,31.9,47.2,39.1,31.1,98,88,56,29.92,29.77,10,1,13,0.06
2013-10-21,48.1,40.5,33.2,45.0,32.5,24.4,91,73,60,29.99,29.79,20,4,20,0.01
2013-10-22,45.0,36.2,29.8,32.0,28.3,24.2,90,73,56,30.02,29.96,16,2,16,0.00
2013-10-23,43.9,35.6,28.3,29.6,26.5,21.7,93,71,44,30.07,29.98,13,2,16,0.00
2013-10-24,42.7,36.8,32.9,29.7,27.8,25.6,81,70,56,30.34,30.06,13,3,19,0.00
2013-10-25,50.0,40.6,28.2,30.6,27.7,24.9,89,62,42,30.43,29.97,26,4,32,0.00
2013-10-26,51.0,46.5,42.0,37.0,30.9,26.4,68,55,43,30.10,29.83,22,5,28,0.00
2013-10-27,54.2,42.7,30.9,32.4,30.5,27.6,88,64,41,30.10,29.96,18,2,18,0.00
2013-10-28,44.2,41.2,35.2,37.2,33.4,29.2,84,74,62,30.48,30.09,11,2,19,0.00
2013-10-29,51.9,42.5,34.6,43.9,38.3,29.4,96,85,73,30.46,30.20,9,1,11,0.00
2013-10-30,55.7,50.4,39.9,55.2,48.9,38.8,99,95,86,30.20,29.79,13,1,18,0.00
2013-10-31,61.6,56.9,44.3,60.8,56.1,42.1,99,97,92,29.79,29.24,18,3,21,0.61
2013-11-1,45.8,43.7,41.6,43.4,41.3,38.9,96,91,87,29.77,29.33,19,4,25,0.04
2013-11-2,45.4,42.3,39.0,41.9,39.1,35.9,96,89,70,30.20,29.77,9,2,12,0.01
2013-11-3,51.2,41.8,29.7,40.7,36.1,28.8,99,81,53,30.36,30.20,13,2,16,0.00
2013-11-4,55.0,49.2,43.8,45.4,40.9,38.0,86,74,58,30.31,30.11,16,5,22,0.00
2013-11-5,55.0,51.6,48.8,50.5,47.7,44.9,95,87,78,30.30,29.93,18,3,22,0.02
2013-11-6,55.5,44.6,33.0,54.6,41.2,26.2,97,88,67,30.19,29.76,19,5,22,0.38
2013-11-7,40.6,34.8,27.9,32.8,29.1,25.3,92,80,68,30.29,30.19,14,3,17,0.00
2013-11-8,47.1,37.4,26.0,33.9,30.5,24.8,96,77,60,30.37,29.92,18,3,23,0.01
2013-11-9,52.1,47.0,40.7,40.8,36.4,26.1,79,67,54,30.09,29.81,24,7,31,0.00
2013-11-10,47.9,42.3,37.9,32.7,29.9,27.4,71,62,47,30.35,30.09,18,4,21,0.00
2013-11-11,43.8,33.6,24.1,34.9,26.4,15.3,95,75,66,30.59,30.09,14,3,16,0.10
2013-11-12,30.2,24.7,20.4,18.0,15.7,12.6,83,69,50,30.77,30.60,16,4,18,0.00
2013-11-13,41.4,30.6,19.0,21.6,16.7,13.2,82,59,33,30.64,30.14,25,6,27,0.00
2013-11-14,45.9,39.7,32.3,30.2,25.7,18.5,68,57,49,30.15,29.95,18,5,23,0.00
2013-11-15,54.1,44.1,38.0,36.0,31.9,28.0,86,63,47,29.99,29.94,12,3,13,0.00
2013-11-16,58.8,49.0,39.0,56.0,46.9,34.9,98,93,83,29.96,29.56,20,6,25,0.22
2013-11-17,63.9,52.5,40.2,61.5,50.0,35.0,99,91,78,29.67,29.07,27,7,34,1.32
2013-11-18,40.4,34.0,27.5,35.6,26.5,22.0,83,74,65,30.31,29.67,27,7,33,0.00
2013-11-19,40.3,30.7,21.5,31.9,25.1,19.4,93,81,56,30.45,30.31,8,2,12,0.00
2013-11-20,43.2,37.3,33.2,35.2,30.6,26.3,96,77,54,30.35,30.17,17,4,23,0.07
2013-11-21,45.1,41.4,36.2,40.6,38.7,35.2,97,90,83,30.28,30.17,8,1,10,0.01
2013-11-22,39.4,32.3,25.7,37.4,26.8,17.2,95,80,64,30.52,30.27,15,4,15,0.02
2013-11-23,25.6,18.7,12.5,18.0,8.2,3.6,75,63,50,30.79,30.46,20,6,22,0.00
2013-11-24,26.0,18.0,9.6,9.2,5.9,1.6,82,60,37,30.78,30.37,18,4,29,0.00
2013-11-25,29.7,25.8,21.0,26.2,20.4,7.6,94,81,53,30.37,30.10,22,5,25,0.00
2013-11-26,31.4,25.8,13.5,27.0,18.7,5.2,91,75,53,30.26,30.09,16,4,23,0.00
2013-11-27,26.0,18.4,9.9,16.8,10.6,5.0,84,72,57,30.33,30.25,14,3,16,0.00
2013-11-28,27.6,22.8,17.1,17.9,15.2,13.7,88,73,63,30.58,30.26,12,2,12,0.00
2013-11-29,26.2,15.3,10.7,18.8,12.3,8.3,92,88,71,30.72,30.59,4,0,5,0.00
2013-11-30,45.7,37.6,29.3,32.9,29.6,22.7,85,73,59,30.46,30.09,14,4,16,0.00
2013-12-1,40.8,33.5,27.0,30.9,28.2,25.2,95,82,61,30.18,30.05,7,1,9,0.00
2013-12-2,40.1,32.9,23.9,34.8,29.2,22.7,98,87,70,30.05,29.85,11,2,14,0.04
2013-12-3,40.2,38.0,33.8,39.9,37.6,32.5,99,98,96,29.85,29.75,11,2,14,0.15
2013-12-4,51.3,43.6,36.8,50.7,43.1,34.4,100,98,86,29.83,29.51,25,3,28,0.02
2013-12-5,36.8,24.9,16.4,34.6,17.9,9.6,92,75,63,30.33,29.64,21,7,29,0.00
2013-12-6,16.9,12.1,8.2,10.2,5.2,1.6,81,73,64,30.64,30.31,16,4,19,0.00
2013-12-7,15.3,8.3,2.2,4.4,1.4,-2.6,84,74,58,30.79,30.64,13,3,17,0.00
2013-12-8,25.7,17.8,6.0,24.7,14.1,0.6,96,85,65,30.72,30.02,8,1,10,0.00
2013-12-9,25.4,12.8,-1.8,24.1,8.0,-6.5,95,81,66,30.26,29.98,22,5,26,0.00
2013-12-10,18.6,9.4,-4.1,12.4,3.5,-7.7,89,77,64,30.37,30.04,21,5,23,0.00
2013-12-11,13.7,7.3,-1.8,11.0,0.3,-8.3,89,73,56,30.63,30.35,17,4,20,0.00
2013-12-12,16.7,8.8,-2.8,10.8,2.1,-8.3,79,74,65,30.61,30.29,15,4,19,0.00
2013-12-13,26.8,20.5,13.6,23.2,16.5,9.5,89,84,78,30.31,30.25,10,2,12,0.00
2013-12-14,26.8,24.2,19.2,24.6,22.3,17.3,94,92,86,30.26,30.00,10,2,13,0.00
2013-12-15,20.3,11.6,2.4,18.1,4.5,-5.8,92,73,61,30.22,29.97,16,5,19,0.00
2013-12-16,18.1,9.1,-2.4,12.3,3.2,-7.3,91,77,51,30.27,30.10,11,2,12,0.00
2013-12-17,32.7,24.3,13.7,25.7,19.5,11.7,94,83,70,30.12,29.98,15,5,19,0.03
2013-12-18,34.7,25.0,12.5,27.4,16.3,8.1,83,70,42,30.19,29.84,17,4,23,0.01
2013-12-19,33.5,30.5,25.7,31.1,27.5,23.5,96,89,78,30.05,29.85,11,2,13,0.00
2013-12-20,31.7,28.0,25.6,30.4,26.9,24.6,96,96,94,29.94,29.84,11,2,13,0.00
2013-12-21,32.3,28.3,24.6,31.6,27.5,23.8,98,97,92,29.95,29.74,9,2,15,0.00
2013-12-22,31.2,25.4,19.5,29.2,24.2,18.0,98,95,92,30.17,29.73,9,3,15,0.02
2013-12-23,20.7,12.3,1.1,19.2,10.1,-1.8,95,90,86,30.49,30.18,12,3,18,0.00
2013-12-24,17.0,6.3,-3.5,12.1,3.1,-6.2,90,86,78,30.64,30.44,9,2,13,0.02
2013-12-25,22.6,19.6,12.2,20.9,17.5,9.8,93,91,88,30.44,30.15,15,4,17,0.00
2013-12-26,26.2,20.9,12.4,24.2,17.9,10.0,93,88,79,30.33,30.15,21,2,21,0.00
2013-12-27,38.1,28.9,16.0,31.5,25.3,14.3,96,87,76,30.35,30.07,15,3,19,0.04
2013-12-28,43.2,37.4,29.4,34.0,31.3,26.6,90,79,69,30.11,29.81,16,4,21,0.26
2013-12-29,40.6,22.3,1.1,31.4,16.3,-4.4,93,78,68,30.28,29.78,17,4,20,0.00
2013-12-30,3.6,-1.0,-8.1,-1.6,-7.7,-13.2,85,73,55,30.44,30.28,9,2,10,0.00
2013-12-31,8.1,4.8,1.4,3.6,0.3,-2.7,87,81,73,30.48,30.30,10,3,12,0.00
2014-1-1,14.3,8.6,2.3,11.6,4.6,-6.0,89,84,67,30.47,30.37,9,3,12,0.00
2014-1-2,14.9,8.5,-1.6,8.7,3.7,-6.3,90,81,69,30.52,30.33,11,3,13,0.00